Regional Weather Roundup
Issued by NWS Upton, NY

Current Version | Previous Version | Text Only | Print | Product List | Glossary On
Versions: 1 2 3 4 5 6 7 8 9 10 11 12 13 14 15 16 17 18 19 20 21 22 23 24 25 26 27 28 29 30 31 32 33 34 35 36 37 38 39 40 41 42 43 44 45 46 47 48 49 50
000
ASUS41 KOKX 220305
RWROKX
REGIONAL WEATHER ROUNDUP
NATIONAL WEATHER SERVICE NEW YORK NY
1100 PM EDT MON JUL 21 2014

NOTE: "FAIR" INDICATES FEW OR NO CLOUDS BELOW 12,000 FEET WITH NO
SIGNIFICANT WEATHER AND/OR OBSTRUCTIONS TO VISIBILITY.

NYZ071-072-176-178-NJZ106-104-220400-
NEW YORK CITY METRO AREA


CITY           SKY/WX    TMP DP  RH WIND       PRES   REMARKS
CENTRAL PARK   CLEAR     74  61  63 CALM      30.20S
LAGUARDIA APRT PTCLDY    74  62  66 S7        30.17S
KENNEDY INTL   PTCLDY    72  64  76 SW8       30.19S
NEWARK/LIBERTY PTCLDY    74  63  68 S7        30.17S
BRNX BOT. GARD   N/A     72  61  68 E5        30.18S
TETERBORO      CLEAR     76  62  62 S6        30.16S
$$

NYZ177-179-078>081-220400-
LONG ISLAND NEW YORK

CITY           SKY/WX    TMP DP  RH WIND       PRES   REMARKS
FARMINGDALE    CLEAR     70  65  84 SW6       30.18S
ISLIP          PTCLDY    70  64  81 SW6       30.17R
SHIRLEY        CLEAR     68  64  87 S5        30.19R
WESTHAMPTON    CLEAR     62  59  90 CALM      30.20S
MONTAUK POINT    N/A     67  64  90 CALM      30.20S
$$

NYZ052-065-067-220400-
HUDSON VALLEY

CITY           SKY/WX    TMP DP  RH WIND       PRES   REMARKS
WHITE PLAINS   PTCLDY    69  63  81 CALM      30.18S
NEWBURGH       NOT AVBL
MONTGOMERY     CLOUDY    71  65  81 CALM      30.16S
POUGHKEEPSIE   PTCLDY    75  64  68 SE3       30.14F
ALBANY         MOCLDY    75  64  68 SE3       30.14R
$$

NJZ001-105-106-008-010-013-015-019>022-104-220400-
NEW JERSEY

CITY           SKY/WX    TMP DP  RH WIND       PRES   REMARKS
NEWARK/LIBERTY PTCLDY    74  63  68 S7        30.17S
TETERBORO      CLEAR     76  62  62 S6        30.16S
CALDWELL       CLEAR     74  64  71 CALM      30.18S
MORRISTOWN     CLEAR     72  64  78 CALM      30.18R
SOMERVILLE     CLEAR     71  65  81 CALM      30.16R
LINDEN         FAIR      75  63  65 CALM      30.19S
SUSSEX         CLEAR     69  65  86 CALM      30.17F
ANDOVER          N/A     67  65  93 CALM      30.18S
TRENTON        CLEAR     71  62  73 S6        30.18R
MILLVILLE      PTCLDY    66  62  87 CALM      30.19S
ATLANTIC CITY  PTCLDY    68  63  84 CALM      30.19S
WRIGHTSTOWN    CLEAR     67  62  84 S2        30.17R
TOMS RIVER     CLEAR     64  61  88 CALM      30.19S
BELMAR         CLEAR     70  61  73 S3        30.19S
$$

PAZ047>061-062-071-220400-
EASTERN PENNSYLVANIA

CITY           SKY/WX    TMP DP  RH WIND       PRES   REMARKS
PHILADELPHIA   CLEAR     74  57  55 S7        30.19R
ALLENTOWN      CLEAR     73  63  70 W3        30.17S
SCRANTON       CLEAR     72  64  76 CALM      30.18S
$$

CTZ002-004>006-009-010-012-RIZ004-006-007-MAZ004-011-015-220400-
SOUTHERN NEW ENGLAND
 IN CT

CITY           SKY/WX    TMP DP  RH WIND       PRES   REMARKS
BRADLEY INTL   PTCLDY    73  60  63 S7        30.15S
HARTFORD       CLEAR     70  61  73 SE5       30.16S
DANBURY        MOCLDY    70  60  70 CALM      30.19S
WTRBRY/OXFORD  CLEAR     66  61  82 CALM      30.21R
BRIDGEPORT     CLEAR     72  66  81 SW8       30.17S
MERIDEN        CLEAR     67  63  87 CALM      30.17S
NEW HAVEN      CLEAR     73  63  70 SW3       30.18S
CHESTER        FAIR      66  63  88 S3        30.19S
GROTON         CLEAR     66  63  90 CALM      30.18R
WILLIMANTIC    CLEAR     68  61  78 CALM      30.19R

 IN RI

CITY           SKY/WX    TMP DP  RH WIND       PRES   REMARKS
PROVIDENCE     PTCLDY    68  61  78 SW3       30.18S
BLOCK ISLAND   CLEAR     66  61  82 W6        30.18S
WESTERLY       CLEAR     66  62  87 CALM      30.19S

 IN MA

CITY           SKY/WX    TMP DP  RH WIND       PRES   REMARKS
BOSTON         PTCLDY    64  61  90 S3        30.17
WORCESTER      CLEAR     66  61  84 SW8       30.20S
WESTFIELD      CLEAR     68  63  84 S3        30.15S
PROVINCETOWN   CLOUDY    63  63 100 CALM      30.17F VSB<1/4
NANTUCKET      FOG       64  63  96 N7        30.16F VSB 1/2
$$

ANZ330-335-338-340-345-350-353-355-220400-
COASTAL MARINE OBSERVATIONS


STATION/POSITION TIME  SKY/WX   TEMP    WIND        PRES    VSBY  WAVE
                                AIR SEA DIR/SP/G                  HT/PER
                 (UTC)          (F)     (DEG/KT/KT) (MB)    (MI)  (FT/S)
NY HARB ENTRANCE NOT AVBL
4S FIRE IS       NOT AVBL
23SW MTP         0200            69 70              1021.7          3/ 8
HUDSON CANYON    0300            70 72  320/  2/  4 1021.9          3/ 8
EXECUTION ROCKS  0300            72 72  220/ 10/ 12   N/A
WESTERN LI SOUND 0300            72     210/  8/ 10   N/A           0
CENTRAL LI SOUND 0200            70 72  200/  8/ 10   N/A           1
EASTERN LI SOUND 0200            66 65  210/  2/  4   N/A
ROBBINS REEF     0300            73     170/  6/  7   N/A
$$


>>>>>>>>>>>>>>>>>>>>>>>>>>>> KEY <<<<<<<<<<<<<<<<<<<<<<<<<<<
>                                                          <
>     SKY/WX - SKY CONDITION/PRESENT WEATHER               <
>     TMP    - TEMPERATURE IN FAHRENHEIT                   <
>     DP     - DEWPOINT IN FAHRENHEIT                      <
>     RH     - RELATIVE HUMIDITY IN PERCENT                <
>     WIND   - DIRECTION AND SPEED IN MPH                  <
>     PRES   - MEAN SEA LEVEL PRESSURE IN INCHES OF HG     <
>     WCI    - WIND CHILL INDEX                            <
>     VSB    - VISIBILITY IN MILES                         <
>     HX     - HEAT INDEX                                  <
>     TC     - TEMPERATURE IN CELSIUS                      <
>     VRB    - VARIABLE WIND DIRECTION                     <
>                                                          <
>>>>>>>>>>>>>>>>>>>>>>>>>>>> KEY <<<<<<<<<<<<<<<<<<<<<<<<<<<




USA.gov is the U.S. government's official web portal to all federal, state and local government web resources and services.